This is the latest recevied weather packets stored in our database for station/object K42C. If no packets are shown the sender has not sent any weather packets the latest 10 day(s).
| Time | Temp. | Humidity | Pressure | Rain* | Wind** | Luminosity | Snow |
|---|---|---|---|---|---|---|---|
| 1777849000 | 13.89° C | 62% | 968.6 hPa | 0 mm | 3.13 m/s, 179° | - | - |
| 1777848603 | 13.89° C | 62% | 968.7 hPa | 0 mm | 3.13 m/s, 194° | - | - |
| 1777848202 | 13.89° C | 63% | 968.9 hPa | 0 mm | 4.47 m/s, 186° | - | - |
| 1777847804 | 13.89° C | 63% | 969.3 hPa | 0 mm | 5.36 m/s, 212° | - | - |
| 1777847404 | 13.89° C | 63% | 969.1 hPa | 0 mm | 3.58 m/s, 248° | - | - |
| 1777847006 | 13.33° C | 63% | 969.4 hPa | 0 mm | 5.81 m/s, 235° | - | - |
| 1777846606 | 13.33° C | 64% | 969.3 hPa | 0 mm | 3.58 m/s, 166° | - | - |
| 1777846208 | 13.33° C | 64% | 969.4 hPa | 0 mm | 5.81 m/s, 191° | - | - |
| 1777845807 | 13.33° C | 64% | 969.6 hPa | 0 mm | 5.36 m/s, 166° | - | - |
| 1777845410 | 13.33° C | 64% | 969.6 hPa | 0 mm | 4.02 m/s, 162° | - | - |
| 1777845009 | 13.33° C | 65% | 969.7 hPa | 0 mm | 4.47 m/s, 207° | - | - |
| 1777844612 | 13.33° C | 66% | 969.9 hPa | 0 mm | 5.36 m/s, 205° | - | - |
| 1777844211 | 13.33° C | 66% | 969.9 hPa | 0 mm | 5.81 m/s, 197° | - | - |
| 1777843814 | 13.33° C | 66% | 970.3 hPa | 0 mm | 5.81 m/s, 162° | - | - |
| 1777843413 | 13.33° C | 69% | 970.4 hPa | 0 mm | 3.58 m/s, 179° | - | - |
| 1777843016 | 12.78° C | 69% | 970.4 hPa | 0 mm | 4.47 m/s, 238° | - | - |
| 1777842218 | 12.78° C | 71% | 970.7 hPa | 0 mm | 5.36 m/s, 263° | - | - |
| 1777841817 | 12.22° C | 73% | 970.8 hPa | 0 mm | 5.36 m/s, 229° | - | - |
| 1777841419 | 11.67° C | 74% | 971 hPa | 0 mm | 4.02 m/s, 203° | - | - |
| 1777841019 | 11.67° C | 75% | 971.2 hPa | 0 mm | 4.92 m/s, 180° | - | - |
| 1777840621 | 11.67° C | 75% | 971.2 hPa | 0 mm | 5.36 m/s, 177° | - | - |
| 1777840220 | 11.67° C | 76% | 971.4 hPa | 0 mm | 4.02 m/s, 233° | - | - |
| 1777839823 | 11.67° C | 76% | 971.5 hPa | 0 mm | 3.58 m/s, 222° | - | - |
| 1777839422 | 11.11° C | 75% | 971.4 hPa | 0 mm | 6.26 m/s, 181° | - | - |
| 1777839025 | 11.11° C | 75% | 971.6 hPa | 0 mm | 2.24 m/s, 207° | - | - |
* Rain latest hour (hover to see other rain measurements)
** Current wind speed in m/s (hover to see current wind gust speed)